Location: Newark
(34.0131°N, 4.3314°W)
Time: 04:01:51
(UTC+00:00)

A-11 Canister half - Pass Details

Date: 24 October 2019
Orbit: 1514 x 1686 km, 47.2° (Epoch: 11 November)

Event Time Altitude Azimuth Distance (km) Brightness Sun altitude
Rises 06:25:33 0° 304° (NW) 4,821 11.0 -1.6°
Reaches altitude 10° 06:28:47 10° 308° (NW) 3,810 10.5 -1.0°
Maximum altitude 06:38:18 60° 27° (NNE) 1,749 9.5 0.9°
Drops below altitude 10° 06:47:28 10° 107° (ESE) 3,687 13.8 2.8°
Sets 06:50:32 0° 111° (ESE) 4,657 14.6 3.4°
